STARLINK-35005

Last updated on Tue Sep 16 2025 00:02:08 GMT+0000 (Coordinated Universal Time)

1 65456U 25194Y 25257.57300513 -.00498208 00000+0 -30223-2 0 9996 2 65456 97.5986 108.8692 0000757 69.9930 290.1418 15.78749669 3023
UTC large
Height (km)
Speed (km/s)
/
Latitude / Longitude
Inclination (degrees)
Orbital Period (minutes)
Azimuth
Elevation
Range (km)
Doppler Factor

Next 0 passes for location: London (51.5072 / 0.1276)

Sorry there are no passes over London.